Погода в Сарапуле

Россия / Удмуртская Республика     56°27′41″N   53°48′13″E
темп.,
°C
ветер,
м/с
пор.,
м/с
влажн.,
%
обл.,
%
осадки,
мм/ч
давл.,
гПа
погр.,
м
15 апреля, чт
чт1501:00+9ю347860 0.0 102547
04:00+8ю338660 0.0 102533
07:00+9ююз268456 0.0 1024148
10:00+14ююз46604 0.0 1023494
13:00+18юз57470 0.0 10211135
16:00+19юз46430 0.0 10201520
19:00+15ююз22584 0.0 101912
22:00+12сз11670 0.0 101910
16 апреля, пт
пт1601:00+10ссв48826 0.0 1020168
04:00+6св611865 0.0 1022381
07:00+5св6128555 0.0 1023499
10:00+8св687183 0.0 1024636
13:00+9св676889 0.0 1025766
16:00+9всв686944 0.0 1025745
19:00+7всв48725 0.0 1025437
22:00+5ссв37860 0.0 1026148
17 апреля, сб
сб1701:00+3ссв410690 0.0 1026232
04:00+1ссв310700 0.0 1027197
07:00+2ссв410640 0.0 1027277
10:00+7св57430 0.0 1027920
13:00+10ссв56380 0.0 10261418
16:00+11ссв45405 0.0 10261659
19:00+8с235411 0.0 102544
22:00+5ссз34655 0.0 102569
18 апреля, вс
вс1801:00+3ссз34720 0.0 102462
04:00+2сз33764 0.0 102441
07:00+4с411765 0.0 1025520
10:00+6ссв795792 0.0 10251431
13:00+6ссв79379 0.0 10271687
16:00+6ссв793271 0.0 10282213
19:00+4св59395 0.0 1029590
22:00+1св49500 0.0 1031312
19 апреля, пн
пн1901:00−1ссв410550 0.0 1033342
04:00−2ссв49620 0.0 1035315
07:00−1св57595 0.0 1036506
10:00+3всв343963 0.0 10371761
13:00+5св44319 0.0 10372091
16:00+5ссв44305 0.0 10372037
19:00+3ссв35420 0.0 1037116
22:000ссв22480 0.0 103919